Date String (YYYY-MM-DD hh:mm:ss) UTC,Instrument flags,Ambient pressure (hPa),Sample flow (lpm),Bypass flow (lpm),Sample temperature (°C),Ambient temperature (°C),ASC tube jacket temperature (°C),LED temperature (°C),Box temperature (°C),Sample RH (%),Span deviation,Mass concentration (μg/m³),Mass concentration (μg/m³),Mass concentration (μg/m³)
DateTimeUTC,F1_M11,P_M11,Q1_M11,Q2_M11,T1_M11,T2_M11,T3_M11,T4_M11,T5_M11,U1_M11,ZSPAN_M11,X0_M11,X2_M11,X1_M11
2022-07-14 06:00:00,,0829.1,5.00,0.00,29.5,27.9,00.0,38.2,31.3,20.0,0000.0,0008.83,0004.25,0003.83
2022-07-14 06:01:00,,0829.1,5.00,0.00,29.5,28.1,00.0,38.2,31.3,19.9,0000.0,0008.97,0004.25,0003.82
2022-07-14 06:02:00,,0829.2,5.01,0.00,29.5,28.2,00.0,38.2,31.4,19.9,0000.0,0009.17,0004.27,0003.80
2022-07-14 06:03:00,,0829.2,5.00,0.00,29.5,28.3,00.0,38.3,31.4,20.0,0000.0,0009.45,0004.29,0003.80
2022-07-14 06:04:00,,0829.2,5.00,0.00,29.6,28.4,00.0,38.3,31.5,19.9,0000.0,0008.49,0004.27,0003.78
2022-07-14 06:05:00,,0829.2,5.00,0.00,29.6,28.5,00.0,38.3,31.5,19.8,0000.0,0008.23,0004.24,0003.77
2022-07-14 06:06:00,,0829.2,5.00,0.00,29.6,28.5,00.0,38.3,31.5,20.1,0000.0,0008.20,0004.22,0003.76
2022-07-14 06:07:00,,0829.2,5.00,0.00,29.7,28.6,00.0,38.3,31.6,20.0,0000.0,0008.18,0004.22,0003.75
2022-07-14 06:08:00,,0829.2,4.99,0.00,29.7,28.3,00.0,38.3,31.6,19.5,0000.0,0008.13,0004.22,0003.74
2022-07-14 06:09:00,,0829.2,5.00,0.00,29.6,27.6,00.0,38.3,31.4,19.4,0000.0,0007.82,0004.22,0003.72
2022-07-14 06:10:00,,0829.2,5.00,0.00,29.6,27.4,00.0,38.2,31.4,19.3,0000.0,0007.79,0004.21,0003.71
2022-07-14 06:11:00,,0829.3,5.00,0.00,29.5,27.5,00.0,38.3,31.3,19.4,0000.0,0007.64,0004.14,0003.70
2022-07-14 06:12:00,,0829.2,5.00,0.00,29.5,27.6,00.0,38.2,31.3,19.5,0000.0,0007.38,0004.11,0003.70
2022-07-14 06:13:00,,0829.3,4.99,0.00,29.5,27.7,00.0,38.2,31.3,19.6,0000.0,0007.05,0004.07,0003.69
2022-07-14 06:14:00,,0829.3,5.01,0.00,29.5,27.8,00.0,38.2,31.3,19.6,0000.0,0006.63,0004.05,0003.69
2022-07-14 06:15:00,,0829.3,5.00,0.00,29.5,28.0,00.0,38.3,31.4,19.6,0000.0,0006.64,0004.05,0003.68
2022-07-14 06:16:00,,0829.3,5.00,0.00,29.5,28.1,00.0,38.3,31.4,19.6,0000.0,0007.40,0004.07,0003.68
2022-07-14 06:17:00,,0829.2,4.99,0.00,29.5,28.2,00.0,38.3,31.4,19.6,0000.0,0007.59,0004.10,0003.68
2022-07-14 06:18:00,,0829.2,5.00,0.00,29.6,28.3,00.0,38.3,31.5,19.4,0000.0,0007.91,0004.10,0003.69
2022-07-14 06:19:00,,0829.3,4.99,0.00,29.6,28.4,00.0,38.3,31.5,19.3,0000.0,0008.06,0004.10,0003.70
2022-07-14 06:20:00,,0829.2,5.00,0.00,29.6,28.5,00.0,38.3,31.5,19.2,0000.0,0008.08,0004.10,0003.71
2022-07-14 06:21:00,,0829.3,5.00,0.00,29.7,28.6,00.0,38.4,31.6,19.2,0000.0,0008.07,0004.11,0003.72
2022-07-14 06:22:00,,0829.2,5.00,0.00,29.7,28.5,00.0,38.4,31.6,19.2,0000.0,0008.09,0004.13,0003.73
2022-07-14 06:23:00,,0829.2,5.01,0.00,29.7,27.8,00.0,38.3,31.5,19.1,0000.0,0008.11,0004.15,0003.74
2022-07-14 06:24:00,,0829.3,5.00,0.00,29.6,27.5,00.0,38.3,31.4,19.2,0000.0,0008.18,0004.18,0003.75
2022-07-14 06:25:00,,0829.2,5.00,0.00,29.6,27.5,00.0,38.3,31.4,19.3,0000.0,0008.23,0004.22,0003.73
2022-07-14 06:26:00,,0829.2,5.01,0.00,29.5,27.6,00.0,38.3,31.3,19.3,0000.0,0008.15,0004.20,0003.73
2022-07-14 06:27:00,,0829.2,5.00,0.00,29.5,27.7,00.0,38.3,31.3,19.2,0000.0,0007.76,0004.17,0003.72
2022-07-14 06:28:00,,0829.3,4.99,0.00,29.5,27.8,00.0,38.3,31.3,19.0,0000.0,0007.64,0004.15,0003.71
2022-07-14 06:29:00,,0829.3,5.01,0.00,29.5,28.0,00.0,38.3,31.4,19.2,0000.0,0007.23,0004.12,0003.70
2022-07-14 06:30:00,,0829.2,5.00,0.00,29.5,28.1,00.0,38.3,31.4,19.2,0000.0,0006.61,0004.12,0003.69
2022-07-14 06:31:00,,0829.2,5.00,0.00,29.6,28.2,00.0,38.3,31.4,19.2,0000.0,0006.79,0004.13,0003.68
2022-07-14 06:32:00,,0829.3,5.00,0.00,29.6,28.3,00.0,38.3,31.5,19.3,0000.0,0006.78,0004.11,0003.65
2022-07-14 06:33:00,,0829.2,5.00,0.00,29.6,28.4,00.0,38.3,31.5,19.3,0000.0,0006.89,0004.09,0003.62
2022-07-14 06:34:00,,0829.1,5.00,0.00,29.6,28.5,00.0,38.3,31.5,19.2,0000.0,0007.38,0004.06,0003.60
2022-07-14 06:35:00,,0829.1,5.01,0.00,29.7,28.6,00.0,38.4,31.6,19.3,0000.0,0007.40,0004.05,0003.59
2022-07-14 06:36:00,,0829.1,5.01,0.00,29.7,28.4,00.0,38.3,31.6,19.3,0000.0,0007.30,0004.01,0003.59
2022-07-14 06:37:00,,0829.1,5.00,0.00,29.7,27.7,00.0,38.3,31.5,19.4,0000.0,0007.25,0003.99,0003.58
2022-07-14 06:38:00,,0829.0,4.99,0.00,29.6,27.4,00.0,38.3,31.4,19.6,0000.0,0007.24,0003.98,0003.56
2022-07-14 06:39:00,,0829.0,5.00,0.00,29.6,27.5,00.0,38.3,31.4,19.7,0000.0,0007.07,0003.97,0003.55
2022-07-14 06:40:00,,0829.0,5.01,0.00,29.6,27.6,00.0,38.3,31.3,19.8,0000.0,0007.11,0003.97,0003.54
2022-07-14 06:41:00,,0829.0,4.99,0.00,29.5,27.7,00.0,38.3,31.3,20.0,0000.0,0007.13,0003.99,0003.52
2022-07-14 06:42:00,,0828.9,5.00,0.00,29.5,27.9,00.0,38.3,31.4,20.2,0000.0,0006.89,0003.96,0003.52
2022-07-14 06:43:00,,0828.9,4.99,0.00,29.5,28.0,00.0,38.3,31.4,20.2,0000.0,0007.46,0003.96,0003.51
2022-07-14 06:44:00,,0828.8,5.01,0.00,29.6,28.1,00.0,38.3,31.4,20.3,0000.0,0007.43,0003.96,0003.50
2022-07-14 06:45:00,,0828.8,4.99,0.00,29.6,28.2,00.0,38.3,31.5,20.2,0000.0,0007.02,0003.96,0003.49
2022-07-14 06:46:00,,0828.9,5.00,0.00,29.6,28.4,00.0,38.3,31.5,20.2,0000.0,0007.06,0003.93,0003.46
2022-07-14 06:47:00,,0828.8,5.01,0.00,29.6,28.4,00.0,38.3,31.5,20.2,0000.0,0007.47,0003.93,0003.44
2022-07-14 06:48:00,,0828.9,5.01,0.00,29.7,28.5,00.0,38.4,31.6,20.1,0000.0,0007.53,0003.92,0003.42
2022-07-14 06:49:00,,0828.9,5.00,0.00,29.7,28.6,00.0,38.4,31.6,20.1,0000.0,0007.83,0003.90,0003.42
2022-07-14 06:50:00,,0828.8,4.99,0.00,29.7,28.4,00.0,38.4,31.6,20.0,0000.0,0008.60,0003.89,0003.40
2022-07-14 06:51:00,,0828.8,5.00,0.00,29.7,27.5,00.0,38.3,31.5,19.9,0000.0,0009.63,0003.89,0003.39
2022-07-14 06:52:00,,0828.8,5.00,0.00,29.6,27.0,00.0,38.3,31.4,20.0,0000.0,0009.60,0003.83,0003.37
2022-07-14 06:53:00,,0828.8,5.01,0.00,29.6,27.0,00.0,38.3,31.3,20.0,0000.0,0009.60,0003.82,0003.36
2022-07-14 06:54:00,,0828.8,5.00,0.00,29.5,27.1,00.0,38.2,31.2,20.2,0000.0,0009.19,0003.78,0003.35
2022-07-14 06:55:00,,0829.3,5.00,0.00,29.5,27.3,00.0,38.2,31.2,20.2,0000.0,0009.06,0003.75,0003.33
2022-07-14 06:56:00,,0829.0,5.00,0.00,29.4,27.5,00.0,38.2,31.2,20.2,0000.0,0009.02,0003.71,0003.31
2022-07-14 06:57:00,,0829.3,5.00,0.00,29.4,27.6,00.0,38.2,31.2,20.4,0000.0,0008.92,0003.67,0003.29
2022-07-14 06:58:00,,0829.3,5.00,0.00,29.4,27.8,00.0,38.2,31.3,20.3,0000.0,0008.66,0003.64,0003.27
2022-07-14 06:59:00,,0829.3,5.01,0.00,29.5,27.9,00.0,38.2,31.3,20.3,0000.0,0008.52,0003.61,0003.24
